Date,TemperatureHighF,TemperatureAvgF,TemperatureLowF,DewpointHighF,DewpointAvgF,DewpointLowF,HumidityHigh,HumidityAvg,HumidityLow,PressureMaxIn,PressureMinIn,WindSpeedMaxMPH,WindSpeedAvgMPH,GustSpeedMaxMPH,PrecipitationSumIn
2013-1-1,53.6,51.6,44.5,54.0,50.5,42.0,100,96,86,30.00,29.80,3,0,5,0.63
2013-1-2,51.2,45.7,40.6,51.0,43.2,39.0,99,91,77,30.05,29.84,4,0,6,0.01
2013-1-3,46.1,37.8,26.8,40.0,34.8,26.0,98,90,65,30.22,30.02,3,0,5,0.02
2013-1-4,53.1,35.9,24.5,30.0,26.2,22.0,98,73,31,30.31,30.19,4,0,45,0.00
2013-1-5,50.6,38.5,26.5,40.0,30.7,25.0,97,77,39,30.29,30.16,2,0,4,0.01
2013-1-6,52.0,42.3,30.6,44.0,38.8,30.0,98,88,69,30.16,30.04,3,0,4,0.00
2013-1-7,55.5,37.9,25.2,36.0,31.6,25.0,99,82,45,30.25,30.15,5,0,9,0.01
2013-1-8,57.2,47.0,30.2,48.0,41.0,30.0,98,80,65,30.25,30.14,6,1,9,0.00
2013-1-9,63.1,56.8,50.6,60.0,53.3,45.0,99,88,81,30.27,30.18,4,1,7,0.06
2013-1-10,63.2,60.8,58.0,63.0,60.3,58.0,99,98,96,30.23,30.01,6,1,11,0.03
2013-1-11,70.6,64.8,60.5,66.0,63.2,60.0,99,94,85,30.05,29.95,4,0,8,0.01
2013-1-12,74.5,63.8,56.1,66.0,61.0,56.0,100,91,68,30.01,29.89,5,0,9,0.00
2013-1-13,72.4,65.3,58.6,64.0,62.7,58.0,99,91,76,29.94,29.85,3,0,8,0.18
2013-1-14,67.5,61.3,48.9,66.0,60.7,48.0,100,97,92,29.99,29.87,2,0,6,0.92
2013-1-15,65.0,56.8,48.7,65.0,56.8,48.0,100,99,98,29.97,29.80,3,0,4,0.35
2013-1-16,65.4,59.4,53.4,65.0,59.0,53.0,100,98,93,29.87,29.77,1,0,7,0.77
2013-1-17,53.6,43.5,36.1,53.0,42.2,32.0,99,95,81,30.16,29.70,5,1,14,0.23
2013-1-18,55.8,39.4,27.0,35.0,29.9,23.0,99,73,28,30.40,30.18,3,0,8,0.00
2013-1-19,58.9,37.9,24.1,38.0,30.3,24.0,99,79,33,30.33,30.11,3,0,5,0.00
2013-1-20,63.7,42.8,27.4,43.0,34.7,27.0,99,78,40,30.13,29.99,3,0,8,0.01
2013-1-21,60.1,41.8,29.2,44.0,33.3,26.0,100,76,46,30.09,29.98,5,1,9,0.00
2013-1-22,30.6,28.5,26.7,26.0,21.7,18.0,87,76,67,30.17,30.07,1,0,3,0.00
2013-1-23,57.4,51.1,41.7,42.0,37.3,26.0,75,60,47,30.29,30.09,3,1,7,0.00
2013-1-24,62.4,50.4,39.1,47.0,38.4,22.0,95,66,39,30.20,30.06,5,1,7,0.00
2013-1-25,61.8,49.3,40.1,51.0,37.5,21.0,95,65,46,30.20,29.98,5,1,8,0.00
2013-1-26,56.8,47.3,37.1,54.0,41.8,35.0,98,83,45,30.16,30.00,3,0,5,0.08
2013-1-27,56.6,46.3,37.2,45.0,39.5,36.0,95,78,64,30.29,30.16,7,1,10,0.00
2013-1-28,64.8,50.2,42.5,55.0,44.6,36.0,98,82,70,30.26,30.11,4,1,6,0.00
2013-1-29,72.8,59.8,44.4,65.0,56.7,44.0,99,90,71,30.11,29.77,3,0,7,0.00
2013-1-30,71.4,59.6,41.2,68.0,57.5,35.0,98,92,76,29.78,29.43,6,2,16,2.21
2013-1-31,49.7,39.3,29.4,36.0,29.5,25.0,94,71,39,30.09,29.79,5,1,9,0.00
2013-2-1,46.3,36.5,23.6,32.0,21.3,11.0,89,58,26,30.27,30.07,5,1,9,0.00
2013-2-2,56.8,38.1,20.0,44.0,27.6,19.0,99,73,27,30.26,30.02,4,0,9,0.07
2013-2-3,59.5,41.2,28.1,42.0,32.6,28.0,100,77,34,30.05,29.91,5,1,12,0.01
2013-2-4,52.6,39.0,27.3,37.0,31.9,27.0,98,79,44,30.02,29.89,3,0,3,0.00
2013-2-5,67.0,50.3,32.1,53.0,44.5,31.0,98,82,56,29.93,29.84,4,1,5,0.00
2013-2-6,69.9,50.2,35.4,49.0,40.1,35.0,99,75,29,30.05,29.92,2,0,6,0.00
2013-2-7,48.6,46.6,42.5,48.0,45.5,40.0,98,96,86,29.99,29.71,6,1,14,0.52
2013-2-8,54.0,46.8,32.9,52.0,45.8,32.0,99,96,91,30.08,29.82,3,0,5,0.03
2013-2-9,62.4,41.6,26.1,42.0,34.1,26.0,99,80,36,30.18,30.07,3,0,7,0.01
2013-2-10,61.1,49.6,35.0,56.0,46.6,34.0,99,90,65,30.13,29.85,6,1,10,1.60
2013-2-11,60.6,55.9,50.1,61.0,55.6,50.0,100,98,90,30.01,29.88,2,0,4,1.36
2013-2-12,49.9,46.2,43.6,50.0,45.3,43.0,100,96,84,30.00,29.68,4,0,7,0.81
2013-2-13,51.6,45.7,34.4,50.0,43.7,34.0,100,93,79,29.87,29.61,5,1,9,0.04
2013-2-14,57.1,42.6,32.1,40.0,35.9,32.0,99,80,45,29.99,29.88,4,0,5,0.00
2013-2-15,63.2,45.2,29.4,46.0,35.9,29.0,100,75,37,30.02,29.88,1,0,63,0.00
2013-2-16,46.6,38.6,24.6,38.0,24.0,14.0,89,59,30,30.08,29.86,6,1,13,0.00
2013-2-17,49.8,32.9,18.7,24.0,18.7,7.0,95,64,19,30.22,30.08,4,0,7,0.00
2013-2-18,60.0,42.2,21.5,32.0,27.0,21.0,97,61,30,30.25,29.95,6,1,8,0.00
2013-2-19,61.2,46.5,32.7,50.0,35.6,23.0,98,70,32,30.07,29.87,4,1,11,0.32
2013-2-20,55.3,38.7,23.5,29.0,22.1,13.0,93,58,19,30.11,30.00,6,1,10,0.00
2013-2-21,66.9,48.4,26.5,47.0,28.5,21.0,94,55,20,30.06,29.82,6,1,10,0.12
2013-2-22,48.0,45.9,43.3,46.0,45.0,43.0,98,96,93,29.96,29.81,13,2,13,1.90
2013-2-23,53.9,47.8,42.9,51.0,46.8,42.0,99,96,89,29.85,29.73,4,0,7,0.88
2013-2-24,68.4,47.9,32.5,47.0,39.5,32.0,100,78,32,29.93,29.80,3,0,6,0.01
2013-2-25,48.9,45.5,41.9,46.0,42.0,34.0,97,88,58,29.85,29.60,8,2,15,0.85
2013-2-26,60.3,47.2,41.6,53.0,41.5,35.0,99,82,56,29.71,29.42,9,2,16,1.12
2013-2-27,61.2,48.4,34.3,40.0,36.2,32.0,93,65,40,29.80,29.72,5,1,10,0.00
2013-2-28,51.3,42.1,30.3,35.0,31.5,28.0,96,68,47,29.91,29.77,5,1,9,0.00
2013-3-1,47.0,40.2,35.9,32.0,29.7,27.0,81,67,52,29.93,29.86,8,1,9,0.00
2013-3-2,38.7,35.9,32.4,32.0,29.4,27.0,86,77,68,29.97,29.87,3,1,9,0.00
2013-3-3,44.6,33.7,24.4,30.0,23.4,20.0,89,68,39,30.01,29.94,6,1,9,0.00
2013-3-4,62.0,42.7,22.0,40.0,28.1,21.0,97,62,31,30.09,29.91,5,1,7,0.00
2013-3-5,67.5,52.7,35.0,59.0,46.3,31.0,92,79,67,29.94,29.58,6,2,15,0.17
2013-3-6,46.2,37.7,29.4,32.0,27.6,22.0,91,68,53,30.10,29.85,6,1,15,0.00
2013-3-7,62.3,43.5,28.0,34.0,29.7,26.0,90,63,28,30.17,30.07,4,0,82,0.00
2013-3-8,68.2,44.6,25.7,36.0,30.8,25.0,98,66,23,30.21,30.09,3,0,67,0.00
2013-3-9,68.9,50.7,31.2,43.0,34.2,29.0,95,59,26,30.17,30.00,4,0,9,0.00
2013-3-10,74.1,60.2,49.6,49.0,43.3,35.0,83,55,40,30.03,29.88,5,1,14,0.00
2013-3-11,65.1,55.1,42.9,58.0,51.8,41.0,98,89,72,29.88,29.66,5,1,12,1.26
2013-3-12,61.4,44.9,33.1,41.0,35.7,32.0,98,74,37,30.01,29.77,5,1,8,0.00
2013-3-13,58.6,43.6,28.8,38.0,28.2,21.0,99,62,25,30.18,30.01,5,1,13,0.00
2013-3-14,59.8,41.9,28.8,29.0,22.4,15.0,85,51,18,30.29,30.13,6,1,8,0.00
2013-3-15,75.7,51.1,28.2,46.0,37.3,27.0,98,65,33,30.14,29.89,5,1,8,0.00
2013-3-16,76.5,60.8,49.0,49.0,44.0,41.0,89,58,31,29.93,29.79,6,2,11,0.00
2013-3-17,69.0,55.0,40.7,58.0,49.8,40.0,99,84,57,29.90,29.79,4,1,10,0.00
2013-3-18,77.3,60.5,49.8,63.0,57.1,50.0,99,89,62,29.83,29.57,2,0,16,0.32
2013-3-19,68.7,54.5,39.3,53.0,40.6,30.0,99,67,24,29.95,29.73,4,1,212,0.08
2013-3-20,60.5,48.8,37.7,36.0,25.2,19.0,92,43,25,30.02,29.80,4,1,6,0.00
2013-3-21,54.2,41.3,28.8,31.0,23.5,13.0,93,55,20,29.91,29.79,5,1,11,0.00
2013-3-22,55.3,44.4,36.4,44.0,36.4,24.0,88,74,50,29.94,29.84,4,0,6,0.01
2013-3-23,61.5,52.5,45.9,55.0,48.9,43.0,97,87,78,29.91,29.54,7,1,11,0.58
2013-3-24,65.3,52.9,42.1,58.0,48.8,31.0,98,87,64,29.66,29.40,8,2,65,0.88
2013-3-25,50.2,41.3,34.4,32.0,26.4,23.0,69,57,38,30.01,29.66,7,3,11,0.00
2013-3-26,43.1,37.0,28.0,29.0,26.3,24.0,88,66,52,30.20,30.00,5,1,10,0.00
2013-3-27,58.4,39.9,23.6,32.0,26.7,22.0,95,64,30,30.27,30.14,4,1,9,0.00
2013-3-28,66.5,45.9,28.5,39.0,30.6,27.0,97,63,25,30.25,30.12,5,1,9,0.00
2013-3-29,73.4,53.1,30.3,45.0,36.8,30.0,98,61,26,30.21,30.03,4,1,8,0.00
2013-3-30,75.4,59.8,43.6,58.0,50.2,41.0,98,74,43,30.05,29.87,4,0,8,0.27
2013-3-31,70.2,60.9,55.7,61.0,58.3,55.0,99,92,68,29.88,29.72,4,0,9,0.42
2013-4-1,75.1,61.9,46.6,59.0,51.5,40.0,99,74,28,29.90,29.74,5,0,6,0.01
2013-4-2,72.9,56.5,40.5,47.0,42.6,34.0,99,64,35,30.05,29.90,4,0,121,0.00
2013-4-3,60.9,51.2,43.5,51.0,40.2,32.0,97,68,46,30.02,29.92,4,1,10,0.23
2013-4-4,47.3,44.9,41.7,47.0,43.9,41.0,98,96,94,29.96,29.82,10,2,12,0.60
2013-4-5,67.5,50.8,40.7,50.0,42.6,36.0,98,78,33,29.96,29.83,7,1,12,0.22
2013-4-6,75.4,55.9,34.3,50.0,42.3,34.0,99,67,29,30.07,29.95,5,1,11,0.00
2013-4-7,77.9,59.8,39.5,55.0,49.5,39.0,99,73,40,30.06,29.91,6,1,8,0.00
2013-4-8,82.3,63.7,46.1,60.0,53.7,46.0,99,74,39,30.00,29.89,5,1,10,0.00
2013-4-9,86.3,66.0,48.7,61.0,55.5,48.0,99,73,36,30.03,29.91,3,0,6,0.00
2013-4-10,86.4,68.1,49.5,63.0,57.5,49.0,99,73,40,29.96,29.77,4,1,8,0.00
2013-4-11,81.0,65.5,51.2,69.0,61.0,51.0,99,87,63,29.78,29.50,6,1,16,1.88
2013-4-12,71.1,60.2,45.6,65.0,51.0,43.0,99,75,38,29.81,29.54,5,1,8,0.02
2013-4-13,79.5,58.8,38.9,52.0,44.3,38.0,99,66,27,29.93,29.81,5,1,9,0.00
2013-4-14,56.5,52.2,44.1,56.0,50.9,43.0,98,95,85,29.92,29.71,4,0,13,0.76
2013-4-15,71.8,62.6,56.2,64.0,59.3,56.0,99,89,72,29.97,29.79,3,0,5,0.00
2013-4-16,85.1,69.0,57.0,69.0,63.8,57.0,99,85,55,30.07,29.98,5,0,8,0.00
2013-4-17,84.7,71.0,59.3,69.0,64.8,59.0,100,83,53,30.06,29.91,4,0,5,0.00
2013-4-18,83.9,69.9,53.6,66.0,61.7,53.0,100,78,48,29.91,29.71,5,1,10,0.00
2013-4-19,70.5,56.6,39.8,68.0,54.5,39.0,98,92,83,29.96,29.64,4,1,9,0.52
2013-4-20,66.5,49.2,32.4,44.0,37.3,32.0,99,70,31,30.12,29.97,7,1,8,0.01
2013-4-21,71.9,53.2,34.0,47.0,41.9,34.0,99,71,37,30.17,30.06,8,1,14,0.00
2013-4-22,72.8,57.5,44.8,54.0,48.3,43.0,97,74,48,30.13,29.99,8,1,13,0.00
2013-4-23,77.5,62.1,49.1,55.0,49.7,43.0,98,67,43,30.07,29.92,5,1,9,0.00
2013-4-24,73.7,61.8,50.5,65.0,58.2,50.0,99,88,64,30.01,29.93,5,1,13,0.00
2013-4-25,74.4,58.2,42.2,55.0,43.4,32.0,95,65,23,30.17,30.01,3,0,146,0.01
2013-4-26,79.2,57.9,36.9,51.0,42.1,36.0,98,64,23,30.21,30.09,5,1,10,0.00
2013-4-27,78.9,65.2,50.4,65.0,58.1,48.0,96,79,57,30.14,29.92,4,0,8,0.51
2013-4-28,68.4,62.7,58.6,67.0,62.1,58.0,99,98,92,29.97,29.84,4,0,9,1.62
2013-4-29,78.9,65.0,53.9,65.0,59.2,53.0,99,84,47,29.89,29.77,1,0,6,0.00
2013-4-30,82.4,64.2,48.4,66.0,58.1,48.0,100,83,47,29.91,29.80,2,0,6,0.00
2013-5-1,67.1,62.7,57.6,62.0,59.5,57.0,99,89,78,30.00,29.88,6,1,14,0.00
2013-5-2,71.5,63.9,60.1,64.0,59.9,57.0,94,87,76,29.99,29.89,7,2,12,0.00
2013-5-3,67.8,63.7,59.7,60.0,59.0,58.0,96,84,74,29.91,29.75,10,2,12,0.05
2013-5-4,59.6,53.5,48.1,59.0,53.0,48.0,99,98,93,29.78,29.70,10,1,14,2.01
2013-5-5,69.2,53.8,44.4,55.0,48.1,43.0,100,83,56,29.74,29.63,3,0,112,0.00
2013-5-6,61.8,52.8,45.6,54.0,49.2,45.0,98,88,71,29.79,29.71,3,0,5,0.58
2013-5-7,66.9,52.8,46.7,56.0,50.3,47.0,99,92,62,29.89,29.76,2,0,217,0.02
2013-5-8,77.8,61.5,45.0,63.0,55.3,45.0,99,82,54,29.96,29.87,2,0,5,0.00
2013-5-9,83.5,66.7,50.1,66.0,58.7,50.0,99,79,43,30.00,29.90,2,0,3,0.00
2013-5-10,77.2,65.4,54.1,65.0,60.6,54.0,99,85,56,29.96,29.81,3,0,7,0.00
2013-5-11,76.8,68.3,60.8,68.0,64.3,60.0,99,88,66,29.86,29.76,4,0,6,0.00
2013-5-12,74.5,61.3,45.9,60.0,51.1,42.0,99,73,39,29.97,29.82,3,0,10,0.00
2013-5-13,73.8,56.3,38.9,49.0,42.8,38.0,99,67,30,30.13,29.97,4,1,9,0.00
2013-5-14,81.7,63.1,41.9,60.0,52.7,41.0,98,73,42,30.13,29.99,3,0,4,0.00
2013-5-15,89.9,69.0,51.9,65.0,58.1,51.0,99,73,32,30.05,29.88,2,0,5,0.00
2013-5-16,85.4,70.6,59.8,65.0,60.3,53.0,96,74,34,29.93,29.84,1,0,4,0.00
2013-5-17,82.2,70.4,59.1,68.0,63.3,58.0,98,80,53,29.95,29.84,4,0,6,0.15
2013-5-18,74.6,68.5,62.9,72.0,67.4,63.0,99,96,86,29.95,29.84,5,0,9,3.71
2013-5-19,82.0,69.8,63.0,76.0,67.9,63.0,100,94,65,29.95,29.84,7,0,12,0.74
2013-5-20,87.4,71.9,60.1,75.0,67.9,60.0,100,88,63,29.95,29.84,4,0,36,0.01
2013-5-21,90.0,75.4,61.6,76.0,69.5,61.0,99,84,57,29.89,29.73,1,0,3,0.00
2013-5-22,86.5,75.1,64.9,73.0,68.1,65.0,99,81,54,29.82,29.71,3,0,128,0.00
2013-5-23,86.0,73.5,61.8,70.0,64.8,60.0,99,77,49,29.86,29.77,4,0,7,0.00
2013-5-24,80.8,67.0,49.7,61.0,54.7,43.0,98,68,37,30.06,29.86,5,1,10,0.00
2013-5-25,83.6,63.3,44.3,59.0,52.0,44.0,99,72,35,30.18,30.04,5,0,8,0.00
2013-5-26,87.5,68.5,49.1,65.0,57.4,49.0,99,73,36,30.11,30.00,2,0,3,0.00
2013-5-27,86.8,71.3,54.4,70.0,63.0,54.0,99,78,46,30.06,29.94,3,0,7,0.00
2013-5-28,85.5,71.4,60.0,68.0,63.7,59.0,99,79,52,30.03,29.93,3,0,10,0.00
2013-5-29,86.6,72.6,58.6,72.0,65.3,58.0,99,80,54,30.02,29.92,8,1,11,0.00
2013-5-30,84.7,74.5,64.0,73.0,68.6,63.0,98,83,60,30.04,29.91,5,1,10,0.00
2013-5-31,86.8,74.7,65.3,70.0,67.4,65.0,98,80,53,30.01,29.89,4,1,10,0.00
2013-6-1,84.7,75.0,66.1,76.0,70.4,65.0,98,86,69,29.92,29.82,6,0,8,0.05
2013-6-2,86.0,74.7,68.3,79.0,71.7,68.0,99,91,67,29.84,29.70,3,0,7,0.20
2013-6-3,87.6,76.6,68.3,75.0,71.1,68.0,99,85,58,29.80,29.71,2,0,6,0.00
2013-6-4,92.7,77.2,62.3,74.0,69.3,62.0,99,79,49,29.84,29.77,4,0,6,0.00
2013-6-5,86.7,74.4,66.6,76.0,70.8,66.0,99,89,68,29.85,29.71,5,0,11,0.83
2013-6-6,80.9,72.1,66.6,75.0,70.0,66.0,99,93,78,29.77,29.58,2,0,4,0.09
2013-6-7,82.4,69.9,64.1,74.0,68.6,64.0,100,96,75,29.74,29.55,2,0,6,0.12
2013-6-8,84.2,72.3,62.2,74.0,69.0,62.0,100,90,67,29.91,29.73,2,0,4,0.01
2013-6-9,77.8,72.2,66.8,75.0,70.5,67.0,99,94,86,29.93,29.83,7,0,9,0.08
2013-6-10,79.2,73.0,68.4,75.0,71.1,67.0,99,94,82,29.88,29.81,3,0,5,0.03
2013-6-11,90.6,79.4,69.7,79.0,74.3,69.0,100,86,62,29.92,29.82,1,0,4,0.00
2013-6-12,94.1,80.8,68.9,80.0,74.6,69.0,100,83,54,29.92,29.82,1,0,6,0.00
2013-6-13,92.3,80.2,68.9,77.0,73.0,69.0,99,81,53,29.83,29.62,3,0,12,1.32
2013-6-14,87.3,74.9,63.6,72.0,66.8,62.0,100,79,45,29.83,29.69,2,0,9,0.01
2013-6-15,87.4,72.9,59.0,71.0,65.2,59.0,99,79,48,29.95,29.84,3,0,7,0.00
2013-6-16,88.3,74.3,61.4,77.0,70.4,61.0,99,89,65,29.98,29.84,2,0,7,0.01
2013-6-17,90.3,76.3,67.9,79.0,72.3,68.0,99,88,65,29.89,29.76,3,0,6,0.33
2013-6-18,85.1,74.4,67.0,78.0,72.0,67.0,100,93,72,29.82,29.71,4,0,7,0.66
2013-6-19,83.6,76.2,68.7,74.0,71.1,68.0,99,85,66,29.91,29.77,5,0,6,0.00
2013-6-20,85.5,75.0,66.5,71.0,68.8,66.0,100,83,58,30.01,29.89,7,1,11,0.00
2013-6-21,86.6,73.4,62.6,72.0,66.9,62.0,99,82,52,30.06,29.96,6,1,9,0.00
2013-6-22,87.5,74.0,61.4,72.0,66.6,61.0,99,80,49,30.04,29.91,4,0,6,0.00
2013-6-23,87.2,74.1,65.4,75.0,70.4,65.0,99,89,65,30.03,29.93,2,0,6,0.00
2013-6-24,87.1,75.8,68.5,76.0,71.8,68.0,99,88,67,30.06,29.94,3,0,6,0.00
2013-6-25,90.9,77.4,65.4,76.0,71.6,65.0,100,84,55,30.01,29.87,1,0,2,0.00
2013-6-26,91.2,79.1,69.2,79.0,73.9,69.0,99,86,61,29.94,29.79,1,0,3,0.00
2013-6-27,89.0,79.2,72.0,80.0,75.4,72.0,99,89,73,29.83,29.68,2,0,5,0.95
2013-6-28,88.7,76.7,69.6,84.0,74.5,69.0,100,93,76,29.73,29.56,1,0,2,0.56
2013-6-29,86.2,74.5,67.9,79.0,72.5,68.0,100,94,72,29.60,29.52,2,0,4,0.29
2013-6-30,88.4,74.5,65.2,77.0,70.3,65.0,100,88,56,29.64,29.55,1,0,2,0.01
2013-7-1,83.1,74.2,67.8,75.0,71.1,68.0,99,91,70,29.77,29.62,3,0,179,0.00
2013-7-2,87.9,75.6,69.1,74.0,70.9,69.0,99,87,57,29.90,29.75,6,0,8,0.25
2013-7-3,72.4,70.7,68.3,72.0,70.6,68.0,100,99,99,29.97,29.88,2,0,8,3.62
2013-7-4,72.2,70.2,68.8,72.0,69.9,69.0,100,99,97,29.98,29.88,5,1,11,0.77
2013-7-5,77.1,72.2,68.7,75.0,71.4,68.0,100,97,89,30.02,29.94,4,0,6,0.15
2013-7-6,80.6,72.2,69.5,77.0,71.7,69.0,100,98,86,29.98,29.91,3,0,7,1.70
2013-7-7,81.0,73.6,70.9,77.0,72.6,71.0,100,97,81,30.02,29.94,2,0,5,0.26
2013-7-8,88.0,75.5,70.8,79.0,73.2,71.0,100,93,68,30.04,29.95,1,0,3,0.60
2013-7-9,90.2,76.8,68.0,81.0,74.2,68.0,100,92,70,30.03,29.92,1,0,2,0.00
2013-7-10,89.0,77.2,68.4,81.0,74.6,68.0,100,92,73,29.93,29.81,1,0,3,0.06
2013-7-11,84.5,75.2,69.9,78.0,73.1,70.0,99,93,77,29.84,29.71,0,0,3,1.57
2013-7-12,90.9,78.1,69.7,81.0,74.6,69.0,100,90,63,29.77,29.70,1,0,4,0.00
2013-7-13,82.8,73.9,68.6,76.0,71.4,68.0,99,92,75,29.89,29.74,7,1,11,0.00
2013-7-14,86.9,76.5,71.1,76.0,73.0,71.0,98,89,68,30.00,29.85,7,1,10,0.03
2013-7-15,86.8,76.4,71.5,77.0,72.7,71.0,98,89,67,30.08,29.99,9,1,16,0.01
2013-7-16,88.9,78.0,70.8,77.0,73.3,70.0,99,86,62,30.13,30.05,7,1,10,0.00
2013-7-17,95.5,79.7,67.3,80.0,73.4,67.0,100,83,48,30.13,29.97,5,0,6,0.00
2013-7-18,90.5,78.4,67.2,77.0,72.1,67.0,99,82,58,30.03,29.89,0,0,5,0.00
2013-7-19,94.3,80.6,68.6,78.0,73.6,68.0,99,81,53,29.96,29.81,0,0,1,0.00
2013-7-20,88.0,76.6,69.3,78.0,73.3,69.0,99,90,70,29.88,29.79,2,0,4,0.00
2013-7-21,91.9,77.2,70.9,78.0,73.7,70.0,99,90,61,29.88,29.79,1,0,4,0.00
2013-7-22,85.5,75.0,70.5,78.0,73.1,70.0,98,94,75,29.88,29.75,1,0,4,0.17
2013-7-23,84.0,72.6,68.5,77.0,71.1,68.0,99,95,71,29.86,29.73,1,0,4,1.04
2013-7-24,86.0,75.3,68.5,79.0,73.3,68.0,100,93,74,29.76,29.66,2,0,4,0.09
2013-7-25,89.9,77.9,67.9,79.0,72.5,67.0,99,85,59,29.84,29.69,0,0,4,0.00
2013-7-26,89.2,76.5,64.9,76.0,70.9,65.0,99,84,59,29.89,29.81,5,0,5,0.00
2013-7-27,81.0,72.9,66.2,75.0,70.7,66.0,99,93,71,29.83,29.76,0,0,1,0.01
2013-7-28,89.2,76.0,63.7,77.0,71.5,64.0,100,87,63,29.88,29.78,0,0,2,0.00
2013-7-29,91.5,76.6,65.6,75.0,70.5,65.0,99,83,51,30.00,29.86,0,0,1,0.00
2013-7-30,92.5,75.6,60.0,77.0,68.9,60.0,99,82,51,30.05,29.93,0,0,1,0.00
2013-7-31,80.1,74.7,71.4,76.0,73.3,71.0,99,96,86,29.97,29.83,1,0,5,0.66
2013-8-1,89.1,76.9,70.0,79.0,73.5,70.0,100,90,65,29.84,29.76,1,0,5,0.20
2013-8-2,91.8,77.4,65.4,77.0,72.1,65.0,100,85,58,29.87,29.78,1,0,4,0.00
2013-8-3,89.9,77.2,64.9,79.0,73.0,65.0,100,88,63,29.92,29.85,0,0,1,0.00
2013-8-4,90.1,78.7,71.6,78.0,74.3,71.0,99,87,62,29.89,29.81,4,0,7,0.00
2013-8-5,89.6,76.5,66.3,76.0,70.8,66.0,100,85,52,29.89,29.82,0,0,3,0.00
2013-8-6,89.7,78.2,68.1,80.0,74.6,68.0,99,89,67,29.86,29.79,0,0,1,0.00
2013-8-7,90.9,77.8,71.3,81.0,75.1,71.0,99,92,67,29.88,29.80,2,0,6,0.16
2013-8-8,87.2,75.6,69.3,81.0,74.2,69.0,100,95,79,29.89,29.82,0,0,4,0.06
2013-8-9,90.1,79.1,70.5,80.0,75.3,70.0,100,89,65,29.93,29.83,2,0,4,0.00
2013-8-10,92.1,78.7,69.9,80.0,74.1,70.0,100,87,60,29.97,29.89,3,0,6,1.18
2013-8-11,89.5,77.3,67.8,80.0,74.0,68.0,100,90,70,30.01,29.92,0,0,2,0.00
2013-8-12,91.0,79.1,71.1,80.0,75.0,71.0,100,88,65,29.96,29.84,2,0,3,0.02
2013-8-13,88.1,76.1,70.5,81.0,74.2,70.0,100,94,74,29.87,29.74,1,0,3,0.82
2013-8-14,77.9,73.2,70.4,76.0,72.7,70.0,100,98,91,29.83,29.75,0,0,1,0.10
2013-8-15,71.1,68.5,64.1,71.0,68.0,64.0,100,98,94,29.91,29.80,6,1,9,0.12
2013-8-16,69.2,65.5,63.6,66.0,64.7,63.0,99,97,90,29.95,29.86,5,1,8,0.03
2013-8-17,67.7,65.1,62.9,67.0,64.6,62.0,100,98,96,29.96,29.89,4,1,9,0.12
2013-8-18,76.9,71.6,66.7,74.0,70.8,67.0,100,97,89,30.02,29.92,3,0,7,0.30
2013-8-19,85.6,75.7,70.3,78.0,73.5,70.0,100,93,72,29.96,29.86,2,0,5,0.01
2013-8-20,85.3,76.0,71.4,79.0,74.0,71.0,99,94,77,29.99,29.90,3,0,7,0.70
2013-8-21,85.8,75.1,69.0,78.0,73.0,69.0,100,93,72,30.05,29.94,6,0,6,0.00
2013-8-22,90.7,77.1,66.1,78.0,73.1,66.0,100,88,64,30.01,29.87,3,0,4,0.00
2013-8-23,91.8,76.4,66.0,79.0,72.9,66.0,100,90,57,29.93,29.83,1,0,2,0.08
2013-8-24,82.7,74.0,67.1,76.0,71.9,67.0,100,93,78,30.07,29.87,5,0,8,0.01
2013-8-25,85.0,73.0,63.8,71.0,67.4,63.0,99,84,55,30.17,30.06,5,1,12,0.00
2013-8-26,82.8,69.1,57.2,69.0,63.5,57.0,100,85,55,30.14,30.00,5,0,8,0.00
2013-8-27,88.4,71.3,57.5,73.0,66.1,58.0,100,86,51,30.02,29.90,4,0,4,0.00
2013-8-28,90.2,75.3,63.3,78.0,70.9,63.0,100,88,58,29.92,29.84,2,0,4,0.00
2013-8-29,92.4,78.4,68.4,77.0,73.1,68.0,100,86,58,29.89,29.79,4,0,6,0.00
2013-8-30,94.0,79.5,69.5,81.0,75.7,69.0,100,89,62,29.84,29.75,2,0,4,0.00
2013-8-31,91.3,78.6,72.0,81.0,75.7,72.0,100,91,63,29.81,29.72,2,0,5,0.00
2013-9-1,92.5,76.4,68.3,81.0,72.9,68.0,100,90,61,29.79,29.70,0,0,8,0.00
2013-9-2,86.9,74.9,69.2,75.0,71.1,69.0,100,89,60,29.84,29.73,2,0,7,0.00
2013-9-3,90.7,76.8,67.9,80.0,73.3,67.0,100,90,65,29.84,29.73,1,0,3,0.01
2013-9-4,91.3,76.8,66.8,77.0,71.3,67.0,100,85,53,29.94,29.81,0,0,1,0.00
2013-9-5,90.9,74.7,63.2,75.0,68.5,63.0,100,84,49,29.97,29.89,0,0,2,0.00
2013-9-6,90.3,74.1,61.8,76.0,69.2,62.0,100,87,54,29.97,29.87,2,0,7,0.01
2013-9-7,91.6,75.3,62.7,73.0,68.6,63.0,100,83,44,29.96,29.84,1,0,6,0.00
2013-9-8,91.5,75.0,61.0,76.0,69.4,61.0,100,85,54,29.88,29.79,0,0,0,0.00
2013-9-9,92.0,77.3,66.7,77.0,71.4,66.0,100,84,50,29.94,29.84,1,0,5,0.00
2013-9-10,89.6,75.7,66.5,77.0,70.1,66.0,100,85,53,30.04,29.94,4,0,10,0.00
2013-9-11,90.3,73.5,61.9,74.0,67.4,62.0,100,84,47,30.06,29.94,5,0,8,0.00
2013-9-12,91.6,73.6,59.5,75.0,68.0,59.0,100,85,49,29.94,29.77,0,0,3,0.00
2013-9-13,88.0,74.3,63.5,75.0,67.9,58.0,100,82,51,29.77,29.66,0,0,4,0.00
2013-9-14,84.7,66.1,50.3,63.0,57.6,50.0,100,78,43,29.91,29.75,2,0,5,0.00
2013-9-15,86.4,69.6,55.2,74.0,65.7,55.0,100,89,60,29.99,29.91,4,0,8,0.00
2013-9-16,91.4,74.2,61.3,76.0,66.4,61.0,100,81,43,29.98,29.89,0,0,5,0.00
2013-9-17,82.1,69.9,58.9,72.0,65.8,59.0,100,87,70,30.02,29.93,8,1,10,0.00
2013-9-18,81.5,70.1,62.9,69.0,64.8,62.0,98,84,62,30.06,29.95,7,1,10,0.00
2013-9-19,86.8,70.5,58.0,69.0,63.8,58.0,100,82,48,30.02,29.91,1,0,6,0.00
2013-9-20,87.1,70.8,58.1,73.0,65.7,58.0,100,86,55,29.93,29.75,4,0,6,0.00
2013-9-21,73.1,68.5,64.7,73.0,68.2,65.0,100,99,97,29.75,29.59,1,0,7,1.44
2013-9-22,84.5,67.3,55.3,69.0,62.8,55.0,100,88,52,29.73,29.62,4,0,7,0.00
2013-9-23,82.8,68.0,53.8,70.0,63.3,54.0,100,87,63,29.85,29.73,7,1,10,0.01
2013-9-24,67.8,66.5,65.2,67.0,66.0,64.0,99,97,94,29.84,29.66,6,1,9,0.05
2013-9-25,72.9,67.8,65.4,71.0,67.0,64.0,99,97,93,29.72,29.64,2,0,6,0.15
2013-9-26,80.6,67.8,59.7,70.0,64.7,60.0,99,90,65,29.87,29.71,3,0,4,0.00
2013-9-27,79.5,65.4,54.9,63.0,59.4,55.0,100,84,46,29.98,29.86,5,0,9,0.00
2013-9-28,77.6,62.5,51.7,62.0,56.9,52.0,100,84,53,30.05,29.94,6,1,11,0.00
2013-9-29,76.9,61.6,49.2,64.0,57.0,49.0,100,87,56,30.00,29.87,7,0,9,0.00
2013-9-30,78.1,63.2,53.5,68.0,60.6,54.0,100,92,67,29.93,29.84,4,0,7,0.00
2013-10-1,84.1,67.7,58.6,69.0,63.0,58.0,100,87,55,30.01,29.90,0,0,3,0.00
2013-10-2,84.3,67.7,54.1,70.0,62.9,54.0,100,86,53,30.01,29.91,0,0,7,0.00
2013-10-3,83.2,69.2,57.2,70.0,64.0,57.0,100,86,55,29.99,29.90,1,0,5,0.00
2013-10-4,86.7,70.0,57.5,71.0,64.9,58.0,100,86,53,30.00,29.91,4,0,7,0.00
2013-10-5,86.3,70.6,58.7,72.0,65.5,59.0,100,86,56,29.98,29.85,0,0,1,0.00
2013-10-6,82.8,69.0,58.9,73.0,66.8,59.0,100,94,69,29.86,29.70,3,0,5,0.44
2013-10-7,74.7,63.4,53.1,69.0,58.8,52.0,100,86,54,29.82,29.68,4,0,9,0.21
2013-10-8,74.1,62.4,49.2,66.0,58.0,49.0,100,86,72,29.96,29.80,5,1,10,0.00
2013-10-9,75.8,63.5,54.0,64.0,58.3,53.0,99,84,62,30.04,29.94,6,1,13,0.00
2013-10-10,81.0,64.3,52.5,66.0,59.6,52.0,100,87,56,30.01,29.87,2,0,5,0.00
2013-10-11,80.9,64.2,53.5,68.0,59.5,54.0,100,87,54,29.93,29.84,3,0,6,0.00
2013-10-12,81.0,63.6,52.0,66.0,58.1,52.0,100,85,50,29.96,29.87,2,0,6,0.00
2013-10-13,83.3,65.2,51.7,66.0,59.3,52.0,100,84,50,30.04,29.95,2,0,5,0.01
2013-10-14,76.5,65.5,56.1,66.0,61.7,56.0,100,88,67,30.06,29.94,3,0,9,0.00
2013-10-15,73.2,65.6,60.0,64.0,61.8,59.0,98,88,69,29.98,29.88,5,1,8,0.00
2013-10-16,78.9,66.1,54.1,67.0,61.8,54.0,100,87,59,29.92,29.80,2,0,4,0.00
2013-10-17,72.5,66.6,62.0,71.0,65.9,61.0,99,97,89,29.82,29.74,0,0,0,0.31
2013-10-18,73.7,60.9,50.8,61.0,55.8,51.0,100,85,49,29.90,29.80,0,0,0,0.00
2013-10-19,62.9,57.6,51.0,60.0,56.8,51.0,100,97,85,29.86,29.80,0,0,0,0.11
2013-10-20,70.5,53.3,42.5,54.0,47.9,42.0,100,85,42,29.94,29.86,0,0,0,0.01
2013-10-21,71.9,55.0,39.0,63.0,51.4,39.0,100,89,58,30.00,29.88,0,0,1,0.00
2013-10-22,74.3,60.6,49.2,62.0,56.3,49.0,99,88,51,29.89,29.73,0,0,0,0.00
2013-10-23,65.2,51.0,38.5,51.0,44.6,38.0,100,82,47,29.99,29.75,6,1,12,0.01
2013-10-24,66.8,48.2,34.1,50.0,42.0,34.0,99,83,47,30.09,29.99,2,0,4,0.00
2013-10-25,58.0,44.2,30.7,44.0,34.1,26.0,99,73,30,30.28,30.09,7,1,8,0.00
2013-10-26,64.8,43.0,27.1,45.0,35.3,27.0,99,79,32,30.22,30.05,3,0,9,0.00
2013-10-27,72.8,53.5,37.9,58.0,48.7,38.0,100,86,55,30.06,29.97,1,0,4,0.00
2013-10-28,68.7,58.4,51.9,62.0,56.7,51.0,99,94,76,30.13,30.00,5,0,5,0.10
2013-10-29,78.2,61.5,51.6,64.0,57.1,52.0,100,87,54,30.18,30.08,3,0,3,0.00
2013-10-30,78.6,61.4,50.7,63.0,56.7,51.0,100,87,51,30.17,30.01,0,0,3,0.00
2013-10-31,74.9,63.7,52.2,67.0,61.2,52.0,100,92,76,30.01,29.68,4,0,11,0.00
2013-11-1,73.1,64.2,48.8,68.0,61.7,49.0,100,92,69,29.71,29.59,4,0,9,0.56
2013-11-2,69.4,52.7,42.9,59.0,46.7,42.0,100,84,41,29.95,29.71,3,0,6,0.01
2013-11-3,65.3,47.3,35.8,45.0,40.0,36.0,100,80,39,30.16,29.96,5,0,7,0.00
2013-11-4,66.0,48.3,34.1,46.0,41.1,34.0,100,80,44,30.26,30.16,12,1,12,0.00
2013-11-5,66.0,52.9,42.1,48.0,42.0,38.0,89,68,46,30.30,30.16,7,1,10,0.00
2013-11-6,73.0,59.7,54.3,62.0,55.9,49.0,99,88,68,30.16,29.96,4,1,11,0.00
2013-11-7,61.6,53.6,37.6,61.0,50.0,36.0,99,88,57,30.12,29.91,5,0,11,0.06
2013-11-8,62.9,45.0,33.0,40.0,33.8,29.0,96,70,28,30.22,30.11,6,0,12,0.00
2013-11-9,63.1,47.8,31.0,47.0,39.5,31.0,99,77,35,30.23,30.11,4,0,8,0.00
2013-11-10,70.5,54.5,42.3,52.0,46.4,41.0,98,78,39,30.17,30.07,0,0,6,0.00
2013-11-11,70.7,49.0,35.9,45.0,39.8,35.0,100,77,29,30.16,30.03,5,0,9,0.00
2013-11-12,66.7,44.7,31.8,48.0,35.2,18.0,100,72,45,30.33,30.03,6,1,13,0.00
2013-11-13,51.3,34.6,23.1,25.0,19.7,13.0,94,60,22,30.46,30.33,5,0,9,0.00
2013-11-14,58.9,36.7,19.0,33.0,25.3,18.0,98,71,24,30.38,30.16,5,0,113,0.00
2013-11-15,61.4,49.8,34.8,53.0,45.7,33.0,99,86,71,30.17,30.00,4,0,6,0.08
2013-11-16,64.3,55.8,47.3,61.0,54.6,47.0,100,96,86,30.07,29.96,3,0,69,0.03
2013-11-17,69.3,64.4,58.6,69.0,64.0,58.0,100,98,96,29.98,29.77,3,0,6,0.06
2013-11-18,75.2,61.5,44.9,70.0,52.4,37.0,100,75,41,29.94,29.77,2,0,9,0.08
2013-11-19,61.4,48.0,34.9,41.0,35.4,31.0,95,64,40,30.02,29.91,2,0,7,0.00
2013-11-20,58.9,46.7,31.5,41.0,37.1,31.0,99,72,50,30.17,30.01,6,1,12,0.00
2013-11-21,63.1,54.6,50.3,56.0,48.4,41.0,94,80,68,30.23,30.13,6,1,9,0.00
2013-11-22,64.0,57.4,50.1,60.0,56.0,49.0,99,95,86,30.18,30.04,4,0,5,0.11
2013-11-23,59.7,53.7,39.0,60.0,49.0,28.0,99,85,63,30.16,30.01,3,1,8,0.01
2013-11-24,49.1,36.5,27.3,28.0,20.7,17.0,80,55,30,30.34,30.15,5,1,13,0.00
2013-11-25,48.8,39.3,27.5,40.0,26.7,17.0,96,62,42,30.32,29.98,6,1,13,0.07
2013-11-26,46.9,42.1,37.7,47.0,41.8,37.0,100,98,96,29.98,29.57,6,1,10,1.19
2013-11-27,41.2,34.0,22.7,41.0,28.9,20.0,99,82,58,30.21,29.61,5,1,13,0.32
2013-11-28,50.8,31.3,18.6,29.0,22.3,17.0,96,74,33,30.37,30.20,2,0,6,0.00
2013-11-29,61.3,36.7,21.7,34.0,25.4,18.0,99,73,19,30.42,30.31,2,0,4,0.00
2013-11-30,55.5,38.9,25.3,38.0,31.7,25.0,99,79,43,30.41,30.20,5,1,11,0.00
2013-12-1,59.0,45.2,35.3,46.0,39.6,33.0,97,82,54,30.19,29.88,2,0,3,0.00
2013-12-2,56.5,49.5,43.2,54.0,48.6,42.0,99,97,92,29.88,29.68,1,0,2,0.18
2013-12-3,60.1,55.6,47.7,60.0,55.7,48.0,100,100,99,29.76,29.67,2,0,89,0.70
2013-12-4,71.6,64.7,58.4,68.0,64.0,58.0,100,98,86,29.88,29.75,2,0,7,0.05
2013-12-5,72.8,67.9,65.0,72.0,67.7,65.0,100,99,95,29.93,29.82,2,0,98,0.32
2013-12-6,76.2,68.8,55.7,71.0,67.2,56.0,99,94,81,29.94,29.83,7,1,9,0.18
2013-12-7,55.5,45.4,42.3,55.0,43.2,41.0,99,92,84,30.17,29.94,3,0,7,0.00
2013-12-8,51.6,48.2,43.4,52.0,48.1,42.0,100,99,92,30.12,30.00,6,1,8,0.16
2013-12-9,53.8,51.1,47.9,54.0,51.1,48.0,100,100,99,30.01,29.89,2,0,146,1.14
2013-12-10,53.6,43.0,27.0,54.0,40.1,27.0,100,90,66,30.23,29.84,6,1,12,0.17
2013-12-11,56.3,37.1,23.5,40.0,30.8,23.0,100,82,36,30.32,30.22,4,0,6,0.00
2013-12-12,49.5,34.3,25.2,30.0,25.9,21.0,99,76,34,30.37,30.26,4,0,7,0.00
2013-12-13,53.6,35.5,21.1,38.0,26.9,20.0,98,76,34,30.26,30.03,3,0,5,0.00
2013-12-14,59.9,51.7,39.9,60.0,50.8,37.0,100,97,86,30.02,29.69,5,0,7,0.87
2013-12-15,50.1,38.2,27.3,49.0,34.9,27.0,98,88,77,30.11,29.74,6,1,7,0.00
2013-12-16,57.0,36.5,24.0,38.0,30.3,24.0,100,83,37,30.19,30.09,3,0,5,0.00
2013-12-17,61.4,42.2,28.7,41.0,34.3,29.0,100,78,36,30.16,30.02,3,0,7,0.01
2013-12-18,56.1,38.5,27.1,36.0,29.4,25.0,99,75,30,30.25,30.11,3,0,7,0.00
2013-12-19,61.7,39.9,24.3,38.0,30.7,24.0,99,76,31,30.22,30.07,3,0,5,0.00
2013-12-20,66.2,48.4,30.4,58.0,45.5,30.0,99,90,72,30.10,29.95,2,0,4,0.00
2013-12-21,71.2,63.3,46.5,68.0,61.7,46.0,100,95,87,29.95,29.77,5,1,14,0.03
2013-12-22,69.2,60.1,52.9,68.0,59.7,53.0,100,98,87,29.95,29.73,4,0,9,2.63
2013-12-23,53.1,46.2,33.4,53.0,44.8,31.0,100,94,84,30.19,29.93,5,1,7,0.01
2013-12-24,43.5,32.9,23.7,30.0,25.7,21.0,94,77,47,30.34,30.19,5,1,11,0.00
2013-12-25,48.0,32.7,19.5,36.0,27.7,19.0,98,83,54,30.34,30.20,6,1,9,0.00
2013-12-26,57.2,38.8,28.1,37.0,31.8,28.0,99,79,38,30.27,30.16,4,0,5,0.00
2013-12-27,55.3,37.2,25.8,40.0,32.2,25.0,99,85,51,30.32,30.21,4,0,8,0.00
2013-12-28,43.0,39.3,31.8,42.0,37.4,31.0,99,93,74,30.25,29.79,6,1,12,1.49
2013-12-29,53.1,44.4,35.3,49.0,43.3,35.0,100,96,82,29.96,29.75,3,0,30,0.03
2013-12-30,51.7,42.5,33.5,48.0,41.4,34.0,100,96,83,30.11,29.95,1,0,161,0.01
2013-12-31,46.7,39.9,31.8,44.0,34.8,30.0,96,83,58,30.29,30.11,2,0,6,0.00
2014-1-1,44.9,39.3,31.9,42.0,36.7,31.0,98,91,76,30.23,29.99,3,0,3,0.09
2014-1-2,51.9,41.8,25.9,52.0,39.6,16.0,100,91,67,30.10,29.70,6,1,16,0.18